User: anonymous   Login
Location: Delta State University
(33.7460°N, 90.7320°W)
Time: 21:34:00
(UTC-05:00)
Language:

Iridium 13 - Orbit

View from above orbital plane
View from above orbital plane
View from above satellite
View from above satellite

Ground track
Ground track

The orbit data is extracted from the following two-line orbital elements,

1 24840U 97030E   16182.39738181  .00000047  00000-0  96093-5 0  9998
2 24840  86.3978 137.2873 0002123  86.3402 273.8037 14.34214361996523
Epoch (UTC): 30 June 2016 09:32:13
Eccentricity: 0.0002123
inclination: 86.3978°
perigee height: 776 km
apogee height: 779 km
right ascension of ascending node: 137.2873°
argument of perigee: 86.3402°
revolutions per day: 14.34214361
mean anomaly at epoch: 273.8037°
orbit number at epoch: 99652

The dashed part of the orbit path shows where the satellite is in the earth's shadow,  

DLR